Weather reports worldwide

Advertisment
Belgrad, Serbia (13274): temperature & dewpoint: 15.02.2019 22:00:00 - 21.02.2019 22:00:00 (CET)Belgrad, Serbia (13274): wind speed: 15.02.2019 22:00:00 - 21.02.2019 22:00:00 (CET)Belgrad, Serbia (13274): wind direction: 15.02.2019 22:00:00 - 21.02.2019 22:00:00 (CET)Belgrad, Serbia (13274): reduced air pressure: 15.02.2019 22:00:00 - 21.02.2019 22:00:00 (CET)Belgrad, Serbia (13274): visibility: 15.02.2019 22:00:00 - 21.02.2019 22:00:00 (CET)
Date & Time tt [°C] td [°C] ff [km/h] ff [kn] dd ppp [hPa] vv [km]
21.02.2019 22:00:00 - - - - - - -
21.02.2019 21:00:00 - - - - - - -
21.02.2019 20:00:00 - - - - - - -
21.02.2019 19:00:00 9,8 -0,9 4 2 WSW 1025,7 15
21.02.2019 18:00:00 - - - - - - -
21.02.2019 17:00:00 - - - - - - -
21.02.2019 16:00:00 12,2 -0,9 7 4 NNW 1026,1 15
21.02.2019 15:00:00 - - - - - - -
21.02.2019 14:00:00 - - - - - - -
21.02.2019 13:00:00 12,4 -1,2 11 6 NNW 1027,5 15
21.02.2019 12:00:00 - - - - - - -
21.02.2019 11:00:00 - - - - - - -
21.02.2019 10:00:00 7,4 1,2 7 4 W 1029,0 10
21.02.2019 09:00:00 - - - - - - -
21.02.2019 08:00:00 - - - - - - -
21.02.2019 07:00:00 2,4 -0,2 4 2 SSW 1028,3 10
21.02.2019 06:00:00 - - - - - - -
21.02.2019 05:00:00 - - - - - - -
21.02.2019 04:00:00 3,4 -0,9 4 2 WSW 1027,4 20
21.02.2019 03:00:00 - - - - - - -
21.02.2019 02:00:00 - - - - - - -
21.02.2019 01:00:00 5,4 0,4 7 4 W 1026,8 20
21.02.2019 00:00:00 - - - - - - -
20.02.2019 23:00:00 - - - - - - -
20.02.2019 22:00:00 7,8 0,4 4 2 W 1025,7 20
20.02.2019 21:00:00 - - - - - - -
20.02.2019 20:00:00 - - - - - - -
20.02.2019 19:00:00 10,1 0,4 4 2 NW 1023,9 20
20.02.2019 18:00:00 - - - - - - -
20.02.2019 17:00:00 - - - - - - -
20.02.2019 16:00:00 - - - - - - -
20.02.2019 15:00:00 - - - - - - -
20.02.2019 14:00:00 - - - - - - -
20.02.2019 13:00:00 14,2 3,8 7 4 W 1022,8 10
20.02.2019 12:00:00 - - - - - - -
20.02.2019 11:00:00 - - - - - - -
20.02.2019 10:00:00 9,4 2,0 7 4 W 1023,6 10
20.02.2019 09:00:00 - - - - - - -
20.02.2019 08:00:00 - - - - - - -
20.02.2019 07:00:00 4,1 0,6 4 2 WSW 1021,9 10
20.02.2019 06:00:00 - - - - - - -
20.02.2019 05:00:00 - - - - - - -
20.02.2019 04:00:00 4,5 0,9 4 2 S 1020,8 12
20.02.2019 03:00:00 - - - - - - -
20.02.2019 02:00:00 - - - - - - -
20.02.2019 01:00:00 5,6 0,9 0 0 N 1020,3 15
20.02.2019 00:00:00 - - - - - - -
19.02.2019 23:00:00 - - - - - - -
19.02.2019 22:00:00 8,0 0,9 4 2 SE 1019,8 15
19.02.2019 21:00:00 - - - - - - -
19.02.2019 20:00:00 - - - - - - -
19.02.2019 19:00:00 10,4 0,6 4 2 SE 1019,1 10
19.02.2019 18:00:00 - - - - - - -
19.02.2019 17:00:00 - - - - - - -
19.02.2019 16:00:00 15,8 -1,2 4 2 W 1018,9 10
19.02.2019 15:00:00 - - - - - - -
19.02.2019 14:00:00 - - - - - - -
19.02.2019 13:00:00 14,6 3,0 4 2 NW 1019,8 10
19.02.2019 12:00:00 - - - - - - -
19.02.2019 11:00:00 - - - - - - -
19.02.2019 10:00:00 9,4 3,8 4 2 NNW 1021,1 8
19.02.2019 09:00:00 - - - - - - -
19.02.2019 08:00:00 - - - - - - -
19.02.2019 07:00:00 2,8 0,9 4 2 SSE 1021,2 8
19.02.2019 06:00:00 - - - - - - -
19.02.2019 05:00:00 - - - - - - -
19.02.2019 04:00:00 6,8 2,8 4 2 SSE 1021,3 10
19.02.2019 03:00:00 - - - - - - -
19.02.2019 02:00:00 - - - - - - -
19.02.2019 01:00:00 6,6 3,8 4 2 SE 1022,4 10
19.02.2019 00:00:00 - - - - - - -
18.02.2019 23:00:00 - - - - - - -
18.02.2019 22:00:00 6,8 2,8 4 2 ESE 1022,8 15
18.02.2019 21:00:00 - - - - - - -
18.02.2019 20:00:00 - - - - - - -
18.02.2019 19:00:00 10,5 3,5 4 2 E 1023,3 15
18.02.2019 18:00:00 - - - - - - -
18.02.2019 17:00:00 - - - - - - -
18.02.2019 16:00:00 13,2 2,0 7 4 NE 1023,1 15
18.02.2019 15:00:00 - - - - - - -
18.02.2019 14:00:00 - - - - - - -
18.02.2019 13:00:00 13,0 1,2 11 6 NNE 1024,8 10
18.02.2019 12:00:00 - - - - - - -
18.02.2019 11:00:00 - - - - - - -
18.02.2019 10:00:00 9,1 1,8 4 2 NNE 1026,5 8
18.02.2019 09:00:00 - - - - - - -
18.02.2019 08:00:00 - - - - - - -
18.02.2019 07:00:00 2,2 0,9 4 2 ESE 1026,6 15
18.02.2019 06:00:00 - - - - - - -
18.02.2019 05:00:00 - - - - - - -
18.02.2019 04:00:00 2,5 1,2 4 2 SE 1026,5 10
18.02.2019 03:00:00 - - - - - - -
18.02.2019 02:00:00 - - - - - - -
18.02.2019 01:00:00 3,7 1,8 0 0 N 1027,4 10
18.02.2019 00:00:00 - - - - - - -
17.02.2019 23:00:00 - - - - - - -
17.02.2019 22:00:00 5,4 2,3 4 2 SE 1027,7 10
17.02.2019 21:00:00 - - - - - - -
17.02.2019 20:00:00 - - - - - - -
17.02.2019 19:00:00 7,5 2,8 0 0 N 1027,3 10
17.02.2019 18:00:00 - - - - - - -
17.02.2019 17:00:00 - - - - - - -
17.02.2019 16:00:00 11,4 2,5 4 2 WNW 1027,4 10
17.02.2019 15:00:00 - - - - - - -
17.02.2019 14:00:00 - - - - - - -
17.02.2019 13:00:00 11,0 1,5 4 2 NNE 1030,0 15
17.02.2019 12:00:00 - - - - - - -
17.02.2019 11:00:00 - - - - - - -
17.02.2019 10:00:00 7,7 0,6 4 2 NW 1031,1 15
17.02.2019 09:00:00 - - - - - - -
17.02.2019 08:00:00 - - - - - - -
17.02.2019 07:00:00 0,8 -0,9 4 2 SE 1030,7 10
17.02.2019 06:00:00 - - - - - - -
17.02.2019 05:00:00 - - - - - - -
17.02.2019 04:00:00 2,5 -0,2 4 2 SE 1030,2 10
17.02.2019 03:00:00 - - - - - - -
17.02.2019 02:00:00 - - - - - - -
17.02.2019 01:00:00 2,9 0,6 4 2 SE 1031,2 10
17.02.2019 00:00:00 - - - - - - -
16.02.2019 23:00:00 - - - - - - -
16.02.2019 22:00:00 4,2 0,9 4 2 SE 1032,0 10
16.02.2019 21:00:00 - - - - - - -
16.02.2019 20:00:00 - - - - - - -
16.02.2019 19:00:00 6,2 2,8 4 2 SSE 1031,8 15
16.02.2019 18:00:00 - - - - - - -
16.02.2019 17:00:00 - - - - - - -
16.02.2019 16:00:00 9,2 2,3 4 2 NW 1031,8 20
16.02.2019 15:00:00 - - - - - - -
16.02.2019 14:00:00 - - - - - - -
16.02.2019 13:00:00 9,2 2,5 4 2 WNW 1032,8 20
16.02.2019 12:00:00 - - - - - - -
16.02.2019 11:00:00 - - - - - - -
16.02.2019 10:00:00 4,6 1,2 7 4 W 1034,1 20
16.02.2019 09:00:00 - - - - - - -
16.02.2019 08:00:00 - - - - - - -
16.02.2019 07:00:00 0,0 -0,9 4 2 SSE 1033,9 10
16.02.2019 06:00:00 - - - - - - -
16.02.2019 05:00:00 - - - - - - -
16.02.2019 04:00:00 0,2 -0,9 7 4 S 1033,6 10
16.02.2019 03:00:00 - - - - - - -
16.02.2019 02:00:00 - - - - - - -
16.02.2019 01:00:00 1,2 -0,6 4 2 S 1033,8 10
16.02.2019 00:00:00 - - - - - - -
15.02.2019 23:00:00 - - - - - - -
15.02.2019 22:00:00 3,1 0,4 4 2 S 1033,6 20

tt = temperature
td = dewpoint
ff = wind speed
dd = wind direction
ppp = reduced air pressure
vv = visibility

Next stations